Location: Jarosław
(50.0191°N, 22.6835°E)
Time: 02:56:02
(UTC+02:00)

ISS - Pass Details

Date: 30 March 2019
Orbit: 408 x 410 km, 51.6° (Epoch: 24 April)

Event Time Altitude Azimuth Distance (km) Brightness Sun altitude
Rises 20:52:08 0° 287° (WNW) 2,340 1.0 -25.9°
Reaches altitude 10° 20:54:14 10° 284° (WNW) 1,476 -0.2 -26.1°
Enters shadow 20:55:27 20° 279° (W) 1,000 -1.3 -26.2°
